www.pogodaiklimat.ru

Погода и климат >> Архив погоды >> Россия >> Якутия >> Усть-Оленек


ПОГОДА на Усть-Оленеке

  • Прогноз погоды на Усть-Оленеке
  • Монитор погоды на Усть-Оленеке

АРХИВ ПОГОДЫ на Усть-Оленеке

Время (UTC), дата Ветер
(напр.,м/с)
 
Видим.   Явления Облачность Т
(С)
Тd
(С)
f
(%)
Тe
(С)
Тes
(С)
Комфортность P
(гПа)
Po
(гПа)
Тmin
(С)
Tmax
(С)
R
(мм)
R24
(мм)
S
(см)
21 17.05 С 1 10 км слаб. снег 10/10 600 м
[Sc]
-9.3 -11.8 82 -12 -12 1031.5 1029.5
00 18.05 С 2 10 км слаб. снег 10/10 600 м
[Sc]
-9.5 -12.5 79 -14 -14 1031.5 1029.5 -10.1 0.5 32
03 18.05 С 3 10 км слаб. снег 10/10 600 м
[Sc]
-8.5 -12.8 71 -14 -14 1031.5 1029.5
06 18.05 С 2 50 км в посл. час снег 10/10 600 м
[Sc]
-7.8 -12.3 70 -12 -12 1031.4 1029.4
09 18.05 С 3 10 км слаб. снег 10/10 600 м
[Sc]
-8.3 -13.0 69 -14 -14 1031.1 1029.1
12 18.05 С 2 10 км слаб. снег 10/10 600 м
[Sc]
-9.6 -13.7 72 -14 -14 1030.9 1028.9 -7.8 0.0
15 18.05 С 2 10 км слаб. снег 10/10 600 м
[Sc]
-10.2 -13.8 75 -15 -15 1030.5 1028.5
18 18.05 С 3 10 км слаб. снег 10/10 600 м
[Sc]
-11.3 -14.1 80 -17 -17 1029.5 1027.5
21 18.05 С 3 10 км слаб. снег 10/10 600 м
[Sc]
-11.2 -14.0 80 -17 -17 1028.1 1026.1
00 19.05 С 2 10 км слаб. снег 10/10 1000 м
[Sc]
-10.9 -14.5 75 -15 -15 1027.4 1025.4 -11.8 0.3 32
03 19.05 С 1 10 км слаб. снег 10/10 1000 м
[Sc]
-10.3 -13.9 75 -13 -13 1026.3 1024.3
06 19.05 С 2 10 км слаб. снег 10/10 1000 м
[Sc]
-10.0 -14.4 70 -14 -14 1025.1 1023.1
09 19.05 СЗ 2 10 км слаб. снег 10/10 1000 м
[Sc]
-10.1 -13.7 75 -15 -15 1023.8 1021.8
12 19.05 С 3 50 км в посл. час снег 10/8 1000 м
[Sc Ac und]
-10.7 -14.3 75 -17 -17 1022.9 1020.9 -9.8 0.2
15 19.05 С 2 50 км 10/3 600 м
[Sc Ci fib]
-13.7 -17.2 75 -18 -18 1021.4 1019.4
18 19.05 С 2 50 км 10/3 600 м
[Sc Ci fib]
-15.8 -18.5 80 -21 -21 1020.5 1018.5
21 19.05 С 1 50 км 10/4 600 м
[Sc Ci sp]
-15.6 -18.3 80 -18 -17 1019.2 1017.2
00 20.05 штиль 0 10 км слаб. снег 10/10 600 м
[Sc]
-11.0 -13.8 80 -11 -11 1018.1 1016.1 -16.3 0.0 33
03 20.05 З 2 10 км слаб. снег 10/10 600 м
[Sc]
-8.4 -11.7 77 -13 -13 1017.0 1015.0
06 20.05 З 4 50 км в посл. час снег 10/10 600 м
[Sc]
-7.1 -10.5 77 -14 -14 1015.4 1013.4
09 20.05 З 6
{10}
50 км позёмок 10/10 1000 м
[Sc]
-6.0 -8.7 81 -14 -14 1014.1 1012.2
12 20.05 З 7-10
{12}
50 км позёмок 10/10 1000 м
[Sc]
-6.4 -9.2 80 -15 -15 1013.5 1011.6 -5.6 0.0
15 20.05 СЗ 7 10 км слаб. снег {метель} 10/10 600 м
[Sc]
-7.2 -9.3 85 -16 -16 1013.0 1011.0
18 20.05 СЗ 6-11
{12}
10 км слаб. снег {метель} 10/10 600 м
[Sc]
-8.3 -10.6 83 -17 -17 1012.5 1010.5
21 20.05 СЗ 7-11
{13}
10 км слаб. снег {метель} 10/10 600 м
[Sc]
-8.5 -10.9 83 -17 -17 1012.5 1010.5
00 21.05 З 6-10
{14}
50 км позёмок {снег} 10/8 1000 м
[Sc Ac trans Ci sp]
-10.0 -12.8 80 -19 -18 1012.2 1010.2 -10.8 0.3 31
03 21.05 З 5
{11}
50 км {метель} 10/3 1000 м
[Sc Ac trans Ci sp]
-9.2 -13.2 73 -17 -15 1012.2 1010.2 -11.0
06 21.05 З 4 50 км {метель} 10/0
[Ac trans Ci sp]
-7.1 -11.9 69 -14 -10 1012.2 1010.2
09 21.05 Ю 1 50 км 4/0
[Ac lent Ci fib]
-7.2 -12.0 69 -9 -5 1011.9 1009.9
12 21.05 ЮВ 2 50 км 3/0
[Ac lent Ci fib]
-7.7 -10.8 78 -12 -11 1011.4 1009.4 -6.5
15 21.05 Ю 1 50 км 3/0
[Ci fib]
-10.1 -14.5 70 -12 -12 1011.1 1009.1
18 21.05 В 1 50 км 3/0
[Ac trans Ci fib]
-12.8 -15.5 80 -15 -15 1009.9 1007.9
21 21.05 С 2 50 км 8/0
[Ac trans]
-13.4 -16.1 80 -18 -17 1008.6 1006.6
00 22.05 штиль 0 50 км 10/0
[Ac und]
-5.5 -10.6 67 -6 -4 1007.1 1005.2 -14.2 31
03 22.05 В 7-10
{12}
10 км слаб. снег {метель} 10/0
[Ac As]
-2.2 -6.1 75 -10 -9 1005.2 1003.3
06 22.05 В 7-10
{11}
10 км слаб. снег {метель} 10/0
[Ac As]
+0.9 -3.0 75 -6 -5 1003.5 1001.6
09 22.05 Ю 7-10
{12}
50 км {снег, метель} 10/4
[Sc Ac trans Ci fib]
+4.8 -4.3 52 -0 0 1001.6 999.8
12 22.05 Ю 5
{11}
50 км {снег, метель} 10/0
[Ac lent Ci fib]
+4.3 -4.6 52 0 0 1000.7 998.9 +5.3 0.0
15 22.05 Ю 6-11
{12}
50 км 10/3 600 м
[Sc Ac lent Ci fib]
+4.9 -4.9 49 0 0 1000.8 999.0
18 22.05 Ю 6-10
{12}
20 км 10/4 1000 м
[Sc Ci ing]
+3.8 -5.4 51 -1 -1 1001.0 999.2
21 22.05 Ю 7-10
{13}
50 км 10/3 1000 м
[Sc Ac trans Ci fib]
+3.5 -5.8 51 -2 -2 1000.6 998.8
00 23.05 ЮВ 4
{11}
50 км 10/0
[Ac trans Cs]
+5.2 -5.3 47 +2 +5 1000.7 998.9 -3.0 28
03 23.05 В 5
{10}
50 км 10/0
[Ci sp]
+3.0 -4.6 57 -2 +2 1000.7 998.9 +2.8
06 23.05 В 8-12
{14}
50 км 10/0
[Ac trans Ci sp]
+1.8 -1.9 76 -5 -4 1001.4 999.3
09 23.05 В 9-12
{16}
50 км 10/3 300 м
[St Ci sp]
+0.2 -3.1 78 -7 -7 1001.5 999.7
12 23.05 В 9-13
{17}
50 км 10/5 300 м
[St Ci fib]
-2.5 -4.7 85 -11 -11 1002.1 1000.2 +5.6
15 23.05 В 9-16
{17}
50 км 10/8 300 м
[St Ci fib]
-3.2 -4.9 88 -12 -12 1003.1 1001.2
18 23.05 В 8-16
{17}
50 км 10/10 300 м
[St]
-2.3 -3.8 89 -11 -11 1003.2 1001.3
21 23.05 В 9-14
{16}
50 км 6/6 300 м
[St]
-1.3 -2.7 90 -10 -10 1003.9 1002.0
00 24.05 В 9-13
{17}
50 км 10/5 300 м
[St Ac trans Ci fib]
-2.7 -3.4 95 -12 -11 1005.2 1003.3 -3.0
03 24.05 В 11-14
{23}
50 км 4/3 300 м
[St Ac trans]
-2.6 -5.2 82 -12 -12 1006.1 1004.2 -3.3
06 24.05 В 9-14
{19}
50 км 3/3 300 м
[St]
-2.1 -5.6 77 -10 -10 1007.2 1005.3
09 24.05 В 7-10
{15}
50 км 10/10 300 м
[Sc]
-3.8 -7.1 78 -12 -12 1009.3 1007.4
12 24.05 В 5
{10}
50 км 10/10 300 м
[Sc]
-2.9 -5.6 82 -10 -10 1009.8 1007.9 -1.7
15 24.05 В 3 50 км 10/10 600 м
[Sc]
-2.4 -4.6 85 -8 -8 1009.1 1007.2
18 24.05 С 3 50 км 10/10 600 м
[Sc]
-3.1 -4.3 91 -8 -8 1009.0 1007.1

 

Местоположение метеостанции Усть-Оленек (Якутия, Россия): широта 73.00 долгота 119.80 высота над уровнем моря 15 м.

В архиве по умолчанию представлена погода на Усть-Оленеке за последнюю неделю. Архивные данные за месяц целиком и за предыдущие месяцы, начиная с января 2011 года, Вы можете получить, выбрав интересующий диапазон дат из раскрывающегося списка и нажав кнопку "Ввод!".


*Определитесь, кто Вы:
робот инопланетянин человек

Внимание! Время в таблицах - всемирное. Для получения местного времени необходимо прибавить поправку, которая равна 9 ч.

Смотрите также архив погоды в соседних городах и на ближайших метеорологических станциях:

Погода в Тюмяти (Якутия, Россия) (173 км)
Погода в Анабаре (Якутия, Россия) (205 км)
Погода на Столб Острове (Якутия, Россия) (225 км)
Погода в Саскылахе (Якутия, Россия) (225 км)
Погода на Острове Преображения (Якутия, Россия) (282 км)
Погода на Мысе Быков (Якутия, Россия) (330 км)
Погода в Тикси (Якутия, Россия) (346 км)
Погода в Кюсюре (Якутия, Россия) (368 км)
Погода в Джалинде (Якутия, Россия) (380 км)
Погода в Сухане (Якутия, Россия) (490 км)

Пояснения к столбцам:

Ветер - указаны скорость ветра в м/с - средняя за 10 мин, порывы в срок и между сроками (в фигурных скобках) и направление, откуда дует ветер: С - северный, СВ - северо-восточный, В - восточный, ЮВ - юго-восточный, Ю - южный, ЮЗ - юго-западный, З - западный, СЗ - северо-западный.
Видимость - горизонтальная дальность видимости в метрах или километрах. При видимости от 1 до 10 км при отсутствии осадков обычно наблюдается дымка, при ухудшении видимости до 1 км и менее - туман. В сухую погоду видимость может ухудшаться дымом, пылью или мглою.
Явления - указаны атмосферные явления, наблюдавшиеся в срок или в последний час перед сроком; фигурными скобками обозначены явления, наблюдавшиеся между сроками (за 1-3 часа до срока); квадратными скобками обозначены град или гололедные отложения с указанием их диаметра в мм.
Облачность - указаны через наклонную черту общая и нижняя облачность в баллах и высота нижней границы облаков в метрах; квадратными скобками обозначены формы облаков: Ci - перистые, Cs - перисто-слоистые, Cc - перисто-кучевые, Ac - высококучевые, As - высокослоистые, Sc - слоисто-кучевые, Ns - слоисто-дождевые, Cu - кучевые, Cb - кучево-дождевые. Подробнее классификацию облаков см. в Атласе облаков (PDF).
T - Температура воздуха - температура, измеренная на высоте 2 м над землей.
Td - Температура точки росы - температура, при понижении до которой содержащийся в воздухе водяной пар достигнет насыщения.
f - Относительная влажность воздуха - влажноcть воздуха, измеренная на высоте 2 м над землей.
Te - Эффективная температура - температура, которую ощущает одетый по сезону человек в тени. Характеристика душности погоды. При расчете учитывается влияние влажности воздуха и скорости ветра на теплоощущения человека.
Tes - Эффективная температура на солнце - температура, которую ощущает человек, с поправкой на солнечный нагрев. Характеристика знойности погоды. Зависит от высоты солнца над горизонтом, облачности и скорости ветра. Ночью, в пасмурную погоду, а также при ветре 12 м/с и более поправка равна нулю.
P - Атмосферное давление - приведенное к уровню моря атмосферное давление.
Po - Атмосферное давление - измеренное на уровне метеостанции атмосферное давление.
Tmin - Минимальная температура - минимум температуры воздуха на высоте 2 м над землей.
Tmax - Максимальная температура - максимум температуры воздуха на высоте 2 м над землей.
R - Количество осадков - Количество выпавших осадков за период времени, мм. При наведении курсора мыши на число - период времени, за который выпало указанное количество осадков.
R24 - Количество осадков - Количество выпавших осадков за 24 часа, мм.
S - Снежный покров - Высота снежного покрова, см. При наведении курсора мыши на число - состояние снежного покрова и степень покрытия местности в баллах.